FW7128 Weather Reports


time (UTC)temp
F
wind
direction
speed
knots
gust
knots
rain 1hr
in
rain 24hr
in
rain mn
in
humidity
%
barometer
mb
20260510044921 74 89 4.3 17.4 0.00 0.00 0.00 71 1009.1
20260510044418 74 74 13.0 14.8 0.00 0.00 0.00 71 1009.1
20260510043915 74 97 3.5 10.4 0.00 0.00 0.00 71 1009.2
20260510043411 74 83 7.0 8.7 0.00 0.00 0.00 70 1008.7
20260510042909 74 161 0.0 13.0 0.00 0.00 0.00 70 1008.5
20260510042405 74 62 4.3 7.8 0.00 0.00 0.00 70 1008.7
20260510041901 74 13 1.7 9.6 0.00 0.00 0.00 69 1008.6
20260510041358 75 23 4.3 9.6 0.00 0.00 0.00 69 1008.5
20260510040855 75 14 3.5 6.1 0.00 0.00 0.00 69 1008.9
20260510040352 75 14 1.7 3.5 0.00 0.00 0.00 69 1008.9
20260510035847 75 9 0.0 3.5 0.00 0.00 0.00 68 1008.7
20260510035344 76 249 0.0 9.6 0.00 0.00 0.00 67 1008.2
20260510034839 76 101 6.1 7.8 0.00 0.00 0.00 67 1007.9
20260510034337 76 110 7.8 8.7 0.00 0.00 0.00 66 1007.7
20260510033834 76 121 6.1 13.9 0.00 0.00 0.00 66 1007.5
20260510033330 77 93 7.8 13.9 0.00 0.00 0.00 65 1007.2
20260510032827 77 110 8.7 13.0 0.00 0.00 0.00 65 1007.0
20260510032324 77 125 10.4 12.2 0.00 0.00 0.00 65 1007.1
20260510031819 77 116 4.3 14.8 0.00 0.00 0.00 64 1006.7
20260510031315 77 116 9.6 19.1 0.00 0.00 0.00 64 1006.9
20260510030809 77 112 9.6 21.7 0.00 0.00 0.00 63 1006.8
20260510030306 78 96 6.1 24.3 0.00 0.00 0.00 63 1006.8
20260510025803 78 101 11.3 12.2 0.00 0.00 0.00 63 1006.8
20260510025301 78 100 11.3 19.1 0.00 0.00 0.00 62 1006.8
20260510024757 78 102 13.9 14.8 0.00 0.00 0.00 62 1006.7
20260510024254 78 113 8.7 14.8 0.00 0.00 0.00 62 1006.7
20260510023750 78 137 10.4 18.2 0.00 0.00 0.00 62 1006.9
20260510023247 79 66 7.8 14.8 0.00 0.00 0.00 62 1006.5
20260510022744 79 93 9.6 18.2 0.00 0.00 0.00 61 1006.3
20260510022244 79 34 3.5 20.0 0.00 0.00 0.00 61 1006.3
20260510021743 79 112 13.0 20.0 0.00 0.00 0.00 60 1006.3
20260510021241 80 135 9.6 19.1 0.00 0.00 0.00 60 1006.3
20260510020736 80 101 9.6 15.6 0.00 0.00 0.00 60 1006.1
20260510020226 80 100 11.3 16.5 0.00 0.00 0.00 59 1006.1
20260510015722 80 114 8.7 19.1 0.00 0.00 0.00 59 1006.0
20260510015218 80 120 7.8 13.0 0.00 0.00 0.00 59 1006.0
20260510014714 80 101 13.9 19.1 0.00 0.00 0.00 59 1006.0
20260510014211 80 112 7.0 15.6 0.00 0.00 0.00 58 1006.1
20260510013711 81 119 9.6 15.6 0.00 0.00 0.00 58 1006.0
20260510013207 81 105 6.1 16.5 0.00 0.00 0.00 58 1006.1
20260510012702 81 83 5.2 13.9 0.00 0.00 0.00 58 1005.8
20260510012157 81 104 6.1 11.3 0.00 0.00 0.00 58 1005.9
20260510011652 81 99 7.8 11.3 0.00 0.00 0.00 58 1006.0
20260510011149 82 115 7.8 7.8 0.00 0.00 0.00 57 1005.9
20260510010644 82 104 6.1 14.8 0.00 0.00 0.00 57 1005.7
20260510010142 82 96 5.2 14.8 0.00 0.00 0.00 56 1005.8
20260510005638 82 66 15.6 20.0 0.00 0.00 0.00 56 1005.8
20260510005135 83 52 5.2 19.1 0.00 0.00 0.00 56 1005.6
20260510004633 83 118 13.9 24.3 0.00 0.00 0.00 56 1005.3
20260510004131 83 138 7.8 12.2 0.00 0.00 0.00 56 1005.7
20260510003628 83 123 7.0 18.2 0.00 0.00 0.00 56 1005.8
20260510003124 83 75 7.8 14.8 0.00 0.00 0.00 55 1005.8
20260510002624 84 142 7.0 20.0 0.00 0.00 0.00 55 1005.7
20260510002121 84 114 11.3 24.3 0.00 0.00 0.00 54 1005.6
20260510001618 84 85 13.9 19.1 0.00 0.00 0.00 54 1005.9
20260510001117 84 117 7.0 10.4 0.00 0.00 0.00 53 1006.3
20260510000616 84 108 10.4 14.8 0.00 0.00 0.00 52 1006.1
20260510000114 84 100 9.6 18.2 0.00 0.00 0.00 52 1006.4
20260509235610 85 103 15.6 19.1 0.00 0.00 0.00 51 1006.2
20260509235107 85 146 4.3 9.6 0.00 0.00 0.00 52 1006.2
20260509234603 85 74 4.3 14.8 0.00 0.00 0.00 52 1006.3
20260509234101 86 80 16.5 19.1 0.00 0.00 0.00 50 1006.3
20260509233558 86 64 6.1 20.0 0.00 0.00 0.00 50 1006.2
20260509233055 86 105 5.2 12.2 0.00 0.00 0.00 50 1006.2
20260509232552 86 68 5.2 17.4 0.00 0.00 0.00 50 1006.2
20260509232049 86 106 11.3 15.6 0.00 0.00 0.00 50 1006.4
20260509231545 85 121 8.7 17.4 0.00 0.00 0.00 50 1006.4
20260509231043 86 111 13.0 25.2 0.00 0.00 0.00 49 1006.2
20260509230539 85 112 16.5 19.1 0.00 0.00 0.00 50 1006.2
20260509230037 86 73 14.8 20.9 0.00 0.00 0.00 49 1006.5
20260509225532 85 71 4.3 12.2 0.00 0.00 0.00 50 1006.5
20260509225028 86 70 18.2 20.9 0.00 0.00 0.00 49 1006.4
20260509224524 85 93 1.7 16.5 0.00 0.00 0.00 49 1006.7
20260509224021 85 114 10.4 19.1 0.00 0.00 0.00 50 1006.8
20260509223517 86 111 5.2 14.8 0.00 0.00 0.00 50 1006.8
20260509223016 85 107 7.8 13.9 0.00 0.00 0.00 50 1006.8
20260509222511 85 87 7.0 14.8 0.00 0.00 0.00 50 1007.0
20260509222007 85 127 2.6 13.9 0.00 0.00 0.00 50 1007.1
20260509221503 84 147 3.5 18.2 0.00 0.00 0.00 50 1007.0
20260509220959 85 116 8.7 16.5 0.00 0.00 0.00 49 1007.2
20260509220455 85 80 17.4 22.6 0.00 0.00 0.00 48 1007.3
20260509215951 85 86 5.2 11.3 0.00 0.00 0.00 49 1007.2
20260509215447 85 151 8.7 18.2 0.00 0.00 0.00 49 1007.6
20260509214945 85 113 7.8 12.2 0.00 0.00 0.00 49 1007.6
20260509214442 85 103 6.1 13.9 0.00 0.00 0.00 49 1007.5
20260509213938 85 69 7.8 13.0 0.00 0.00 0.00 48 1007.6
20260509213434 85 158 4.3 12.2 0.00 0.00 0.00 49 1007.8
20260509212931 84 135 10.4 14.8 0.00 0.00 0.00 49 1008.0
20260509212429 84 91 13.9 18.2 0.00 0.00 0.00 49 1007.9
20260509211925 84 88 10.4 12.2 0.00 0.00 0.00 48 1008.2
20260509211420 84 88 4.3 9.6 0.00 0.00 0.00 48 1007.9
20260509210917 85 105 11.3 12.2 0.00 0.00 0.00 48 1008.2
20260509210414 84 91 6.1 13.9 0.00 0.00 0.00 48 1008.1
20260509205909 85 160 3.5 9.6 0.00 0.00 0.00 48 1008.1
20260509205404 84 135 6.1 9.6 0.00 0.00 0.00 48 1008.0
20260509204900 85 125 5.2 10.4 0.00 0.00 0.00 46 1008.3
20260509204357 85 175 11.3 12.2 0.00 0.00 0.00 48 1008.5
20260509203853 83 192 2.6 6.1 0.00 0.00 0.00 49 1008.4
20260509203349 84 63 6.1 10.4 0.00 0.00 0.00 50 1008.4
20260509202847 84 60 4.3 8.7 0.00 0.00 0.00 50 1008.6
20260509202342 84 115 13.0 20.0 0.00 0.00 0.00 51 1008.6
20260509201838 84 104 16.5 16.5 0.00 0.00 0.00 52 1008.6
20260509201334 83 230 0.0 15.6 0.00 0.00 0.00 52 1008.8
20260509200830 84 111 6.1 11.3 0.00 0.00 0.00 51 1008.9
20260509200326 84 78 7.0 15.6 0.00 0.00 0.00 52 1008.9
20260509195822 83 69 4.3 8.7 0.00 0.00 0.00 49 1008.9
20260509195317 82 99 4.3 7.0 0.00 0.00 0.00 51 1009.2
20260509194817 83 92 6.1 11.3 0.00 0.00 0.00 50 1009.3
20260509194313 81 224 0.0 8.7 0.00 0.00 0.00 49 1009.4
20260509193810 83 98 2.6 15.6 0.00 0.00 0.00 47 1009.4
20260509193309 84 84 7.8 9.6 0.00 0.00 0.00 49 1009.4
20260509192806 82 95 5.2 11.3 0.00 0.00 0.00 48 1009.5
20260509192305 81 77 4.3 12.2 0.00 0.00 0.00 51 1009.5
20260509191757 83 66 6.1 15.6 0.00 0.00 0.00 49 1009.5
20260509191254 82 294 0.0 8.7 0.00 0.00 0.00 50 1009.4
20260509190749 82 216 0.0 10.4 0.00 0.00 0.00 51 1009.4
20260509190247 83 74 7.8 9.6 0.00 0.00 0.00 51 1009.5
20260509185744 82 342 0.0 5.2 0.00 0.00 0.00 52 1009.7
20260509185240 81 91 3.5 8.7 0.00 0.00 0.00 46 1009.5
20260509184738 82 104 13.0 13.9 0.00 0.00 0.00 46 1009.6
20260509184235 82 72 6.1 7.8 0.00 0.00 0.00 47 1009.6
20260509183731 83 125 5.2 10.4 0.00 0.00 0.00 47 1009.5
20260509183226 82 176 0.0 2.6 0.00 0.00 0.00 51 1009.6
20260509182722 81 44 0.0 7.0 0.00 0.00 0.00 49 1009.8
20260509182220 83 97 3.5 8.7 0.00 0.00 0.00 48 1009.6
20260509181717 83 237 0.0 4.3 0.00 0.00 0.00 50 1009.8
20260509181215 81 132 0.0 3.5 0.00 0.00 0.00 51 1009.9
20260509180712 81 135 2.6 10.4 0.00 0.00 0.00 49 1010.0
20260509180208 80 28 0.0 7.0 0.00 0.00 0.00 49 1010.5
20260509175704 81 72 7.8 11.3 0.00 0.00 0.00 51 1010.4
20260509175201 82 140 3.5 8.7 0.00 0.00 0.00 48 1010.5
20260509174656 80 94 0.0 6.1 0.00 0.00 0.00 50 1010.4
20260509174151 81 2 2.6 5.2 0.00 0.00 0.00 50 1010.8
20260509173648 81 353 0.0 8.7 0.00 0.00 0.00 52 1010.8
20260509173143 79 258 4.3 4.3 0.00 0.00 0.00 49 1010.8
20260509172640 80 93 1.7 6.1 0.00 0.00 0.00 50 1010.9
20260509172136 82 258 0.0 7.8 0.00 0.00 0.00 48 1010.9
20260509171632 81 202 2.6 2.6 0.00 0.00 0.00 46 1010.9
20260509171128 80 101 0.0 5.2 0.00 0.00 0.00 49 1010.8
20260509170625 83 3 3.5 11.3 0.00 0.00 0.00 49 1011.2
20260509170121 81 245 0.0 1.7 0.00 0.00 0.00 49 1011.2
20260509165619 82 76 4.3 7.8 0.00 0.00 0.00 47 1011.0
20260509165115 80 163 1.7 2.6 0.00 0.00 0.00 48 1011.2
20260509164611 79 51 0.0 2.6 0.00 0.00 0.00 48 1011.5
20260509164107 82 116 5.2 6.1 0.00 0.00 0.00 48 1011.5
20260509163606 82 261 0.0 2.6 0.00 0.00 0.00 50 1011.4
20260509163101 81 247 0.0 2.6 0.00 0.00 0.00 48 1011.6
20260509162558 79 230 0.0 2.6 0.00 0.00 0.00 51 1011.4
20260509162054 78 216 0.0 4.3 0.00 0.00 0.00 51 1011.5
20260509161550 79 133 2.6 2.6 0.00 0.00 0.00 53 1011.4
20260509161045 78 124 1.7 2.6 0.00 0.00 0.00 56 1011.4
20260509160541 78 136 0.0 4.3 0.00 0.00 0.00 56 1011.3
20260509160037 75 32 0.0 3.5 0.00 0.00 0.00 58 1011.5
20260509155533 77 173 2.6 6.1 0.00 0.00 0.00 59 1011.4
20260509155029 76 124 1.7 7.0 0.00 0.00 0.00 60 1011.8
20260509154526 75 158 0.0 3.5 0.00 0.00 0.00 63 1011.7
20260509154023 74 222 0.0 2.6 0.00 0.00 0.00 61 1011.8
20260509153520 75 36 0.0 6.1 0.00 0.00 0.00 64 1011.8
20260509153017 75 203 4.3 4.3 0.00 0.00 0.00 62 1011.9
20260509152513 74 176 1.7 3.5 0.00 0.00 0.00 65 1011.7
20260509152009 74 165 2.6 4.3 0.00 0.00 0.00 64 1011.6
20260509151506 75 229 4.3 4.3 0.00 0.00 0.00 63 1011.5
20260509151005 73 204 1.7 2.6 0.00 0.00 0.00 65 1011.6
20260509150501 73 68 4.3 4.3 0.00 0.00 0.00 66 1011.7
20260509145959 72 126 1.7 3.5 0.00 0.00 0.00 67 1011.8
20260509145455 72 108 6.1 6.1 0.00 0.00 0.00 68 1011.9
20260509144950 72 62 0.0 4.3 0.00 0.00 0.00 69 1011.7
20260509144447 71 148 0.0 4.3 0.00 0.00 0.00 68 1011.9
20260509143944 73 137 3.5 3.5 0.00 0.00 0.00 67 1011.8
20260509143441 69 129 0.0 0.0 0.00 0.00 0.00 68 1011.6
20260509142938 70 243 0.0 2.6 0.00 0.00 0.00 73 1011.8
20260509142434 69 55 2.6 3.5 0.00 0.00 0.00 73 1011.9
20260509141930 69 92 2.6 4.3 0.00 0.00 0.00 74 1012.0
20260509141427 69 132 4.3 4.3 0.00 0.00 0.00 73 1011.9
20260509140924 68 68 2.6 6.1 0.00 0.00 0.00 74 1012.0
20260509140420 67 137 2.6 4.3 0.00 0.00 0.00 79 1011.8
20260509135918 67 164 0.0 4.3 0.00 0.00 0.00 80 1012.0
20260509135416 66 151 0.0 6.1 0.00 0.00 0.00 80 1012.0
20260509134913 67 121 4.3 5.2 0.00 0.00 0.00 79 1012.1
20260509134410 66 117 0.0 4.3 0.00 0.00 0.00 82 1011.9
20260509133907 65 134 0.0 5.2 0.00 0.00 0.00 83 1011.7
20260509133404 67 96 4.3 4.3 0.00 0.00 0.00 80 1011.9
20260509132902 65 135 0.0 4.3 0.00 0.00 0.00 84 1011.8
20260509132400 64 114 2.6 4.3 0.00 0.00 0.00 88 1012.0
20260509131857 64 195 2.6 4.3 0.00 0.00 0.00 88 1011.9
20260509131354 63 128 2.6 3.5 0.00 0.00 0.00 89 1011.8
20260509130850 62 168 0.0 5.2 0.00 0.00 0.00 91 1011.8
20260509130346 62 101 2.6 4.3 0.00 0.00 0.00 94 1011.9
20260509125843 61 168 3.5 5.2 0.00 0.00 0.00 95 1011.7
20260509125339 61 127 0.0 6.1 0.00 0.00 0.00 96 1011.8
20260509124836 61 181 1.7 6.1 0.00 0.00 0.00 97 1011.9
20260509124333 60 107 5.2 5.2 0.00 0.00 0.00 99 1011.8
20260509123831 60 160 5.2 5.2 0.00 0.00 0.00 99 1011.6
20260509123328 60 140 2.6 5.2 0.00 0.00 0.00 99 1011.6
20260509122823 59 123 0.0 3.5 0.00 0.00 0.00 99 1011.5
20260509122320 59 209 1.7 2.6 0.00 0.00 0.00 99 1011.5
20260509121817 59 180 0.0 3.5 0.00 0.00 0.00 99 1011.4
20260509121314 59 138 0.0 4.3 0.00 0.00 0.00 99 1011.7
20260509120813 59 147 0.0 0.0 0.00 0.00 0.00 99 1011.4
20260509120310 59 180 0.0 5.2 0.00 0.00 0.00 99 1011.5
20260509115808 59 201 3.5 6.1 0.00 0.00 0.00 99 1011.6
20260509115307 59 166 1.7 3.5 0.00 0.00 0.00 99 1011.1
20260509114803 59 180 0.0 1.7 0.00 0.00 0.00 99 1011.1
20260509114301 59 195 5.2 7.8 0.00 0.00 0.00 99 1011.3
20260509113800 59 191 1.7 7.0 0.00 0.00 0.00 99 1011.0
20260509113256 59 150 0.0 7.8 0.00 0.00 0.00 99 1011.3
20260509112753 59 165 3.5 8.7 0.00 0.00 0.00 99 1011.0
20260509112250 59 179 2.6 8.7 0.00 0.00 0.00 99 1010.9
20260509111747 59 190 2.6 4.3 0.00 0.00 0.00 99 1011.0
20260509111244 59 148 0.0 2.6 0.00 0.00 0.00 99 1010.1
20260509110741 59 150 0.0 4.3 0.00 0.00 0.00 99 1010.0
20260509110238 59 89 0.0 1.7 0.00 0.00 0.00 99 1010.1
20260509105736 59 113 0.0 4.3 0.00 0.00 0.00 99 1010.1
20260509105233 59 102 0.0 1.7 0.00 0.00 0.00 99 1010.1
20260509104730 59 114 3.5 6.1 0.00 0.00 0.00 99 1010.2
20260509104227 59 93 1.7 2.6 0.00 0.00 0.00 99 1009.9
20260509103725 59 131 0.0 5.2 0.00 0.00 0.00 99 1010.1
20260509103222 59 143 0.0 2.6 0.00 0.00 0.00 99 1010.0
20260509102720 59 151 0.0 1.7 0.00 0.00 0.00 99 1010.1
20260509102217 59 118 0.0 2.6 0.00 0.00 0.00 99 1010.0
20260509101713 59 74 3.5 5.2 0.00 0.00 0.00 99 1010.0
20260509101210 59 78 0.0 4.3 0.00 0.00 0.00 99 1009.9
20260509100708 59 110 3.5 4.3 0.00 0.00 0.00 99 1009.9
20260509100204 59 63 3.5 4.3 0.00 0.00 0.00 99 1009.7
20260509095701 59 131 0.0 0.0 0.00 0.00 0.00 99 1009.4
20260509095158 59 132 0.0 0.0 0.00 0.00 0.00 99 1009.6
20260509094655 59 130 0.0 1.7 0.00 0.00 0.00 99 1009.2
20260509094152 59 217 0.0 1.7 0.00 0.00 0.00 98 1009.4
20260509093651 59 130 1.7 1.7 0.00 0.00 0.00 98 1009.1
20260509093147 59 142 0.0 0.0 0.00 0.00 0.00 98 1009.1
20260509092645 59 141 0.0 1.7 0.00 0.00 0.00 98 1008.9
20260509092143 59 162 0.0 0.0 0.00 0.00 0.00 98 1008.8
20260509091641 59 149 0.0 0.0 0.00 0.00 0.00 98 1008.8
20260509091137 59 144 0.0 2.6 0.00 0.00 0.00 97 1008.9
20260509090635 60 113 0.0 1.7 0.00 0.00 0.00 97 1008.8
20260509090132 60 131 0.0 2.6 0.00 0.00 0.00 97 1008.7
20260509085629 60 142 0.0 0.0 0.00 0.00 0.00 97 1008.8
20260509085125 60 139 0.0 0.0 0.00 0.00 0.00 96 1009.0
20260509084623 60 208 1.7 1.7 0.00 0.00 0.00 96 1009.0
20260509084119 60 144 0.0 1.7 0.00 0.00 0.00 95 1008.9
20260509083617 61 186 0.0 1.7 0.00 0.00 0.00 94 1008.8
20260509083113 61 186 0.0 2.6 0.00 0.00 0.00 94 1009.0
20260509082611 61 240 0.0 1.7 0.00 0.00 0.00 93 1008.9
20260509082107 62 306 0.0 1.7 0.00 0.00 0.00 92 1009.1
20260509081605 62 199 0.0 1.7 0.00 0.00 0.00 91 1009.2
20260509081101 62 191 0.0 1.7 0.00 0.00 0.00 91 1009.0
20260509080600 62 193 0.0 2.6 0.00 0.00 0.00 91 1009.2
20260509080057 62 205 0.0 1.7 0.00 0.00 0.00 90 1009.3
20260509075555 62 147 0.0 4.3 0.00 0.00 0.00 89 1009.5
20260509075053 62 217 0.0 4.3 0.00 0.00 0.00 88 1009.2
20260509074549 62 32 0.0 4.3 0.00 0.00 0.00 88 1009.4
20260509074046 62 180 2.6 5.2 0.00 0.00 0.00 88 1009.5
20260509073542 62 210 2.6 6.1 0.00 0.00 0.00 89 1009.2
20260509073039 62 211 0.0 4.3 0.00 0.00 0.00 89 1009.5
20260509072535 62 180 1.7 5.2 0.00 0.00 0.00 89 1009.7
20260509072032 62 232 4.3 9.6 0.00 0.00 0.00 89 1009.6
20260509071529 62 229 3.5 6.1 0.00 0.00 0.00 90 1009.8
20260509071026 62 202 0.0 9.6 0.00 0.00 0.00 90 1009.8
20260509070524 62 207 0.0 6.1 0.00 0.00 0.00 92 1009.6
20260509070020 62 222 2.6 3.5 0.00 0.00 0.00 93 1009.7
20260509065515 61 256 0.0 2.6 0.00 0.00 0.00 93 1009.8
20260509065012 61 196 2.6 3.5 0.00 0.00 0.00 94 1009.8
20260509064509 61 269 0.0 4.3 0.00 0.00 0.00 95 1009.9
20260509064007 61 260 0.0 3.5 0.00 0.00 0.00 95 1009.9
20260509063502 61 298 0.0 3.5 0.00 0.00 0.00 95 1009.9
20260509063000 61 230 0.0 0.0 0.00 0.00 0.00 95 1010.2
20260509062457 61 129 0.0 4.3 0.00 0.00 0.00 94 1010.4
20260509061955 61 245 1.7 4.3 0.00 0.00 0.00 95 1010.2
20260509061451 61 247 3.5 6.1 0.00 0.00 0.00 95 1010.1
20260509060949 61 158 0.0 4.3 0.00 0.00 0.00 95 1010.0
20260509060446 62 233 0.0 2.6 0.00 0.00 0.00 94 1009.9
20260509055942 62 223 0.0 7.8 0.00 0.00 0.00 94 1010.2
20260509055437 62 262 1.7 7.8 0.00 0.00 0.00 93 1010.2
20260509054934 62 207 8.7 8.7 0.00 0.00 0.00 94 1010.1
20260509054430 62 187 1.7 5.2 0.00 0.00 0.00 94 1010.5
20260509053929 62 275 0.0 7.8 0.00 0.00 0.00 94 1010.2
20260509053426 62 202 4.3 5.2 0.00 0.00 0.00 94 1009.9
20260509052923 62 228 6.1 7.0 0.00 0.00 0.00 94 1009.6
20260509052421 62 59 2.6 10.4 0.00 0.00 0.00 94 1009.9
20260509051919 62 134 0.0 6.1 0.00 0.00 0.00 94 1009.8
20260509051416 62 112 3.5 7.0 0.00 0.00 0.00 94 1009.9
20260509050913 62 168 0.0 7.8 0.00 0.00 0.00 94 1011.0
20260509050410 62 230 2.6 4.3 0.00 0.00 0.00 94 1011.0
20260509045907 62 207 0.0 4.3 0.00 0.34 0.34 94 1011.1
20260509045403 62 191 8.7 9.6 0.00 0.34 0.34 94 1011.0